Terminal Aerodrome Forecast
Issued by NWS Tallahassee, FL

Home | Current Version | Previous Version | Text Only | Print | Product List | Glossary On
Versions: 1 2 3 4 5 6 7 8 9 10 11 12 13 14 15 16 17 18 19 20 21 22
993
FTUS42 KTAE 212100 AAA
TAFTLH
TAF AMD
KTLH 212100Z 2121/2218 VRB20G30KT 2SM TSRA OVC015CB
     FM212300 19008KT P6SM OVC025
     FM220600 19008KT 5SM -RA BR OVC008
     FM221400 20012G20KT 3SM TSRA OVC015CB=

USA.gov is the U.S. government's official web portal to all federal, state and local government web resources and services.